Location: Newark
(23.7500°N, 102.4000°W)
Time: 03:48:48
(UTC+00:00)

X-37B - Visible Passes

Search period start: 25 September 2020 00:00
Search period end: 05 October 2020 00:00
Orbit: 386 x 387 km, 45.0° (Epoch: 18 September)

Date Brightness Start Highest point End Pass type
(mag) Time Alt. Az. Time Alt. Az. Time Alt. Az.
25 Sep 3.8 10:46:06 10° NNE 10:46:22 10° NNE 10:47:03 10° NE visible
26 Sep 1.6 11:23:18 26° NNW 11:24:39 44° NE 11:27:42 10° ESE visible
27 Sep 4.2 10:28:19 11° E 10:28:19 11° E 10:28:25 10° E visible
27 Sep 1.8 12:00:39 15° W 12:02:34 25° SW 12:05:14 10° SSE visible
28 Sep 2.9 01:18:27 10° SE 01:19:05 10° SE 01:19:24 10° SE visible
28 Sep 2.5 11:05:46 25° SE 11:05:46 25° SE 11:07:14 10° SE visible
29 Sep 0.5 01:53:43 10° SW 01:56:47 68° SSE 01:56:47 68° SSE visible
30 Sep 3.5 02:32:32 10° W 02:34:00 17° WNW 02:34:00 17° WNW visible
01 Oct 1.6 01:33:15 10° WSW 01:36:17 43° NW 01:38:45 14° NNE visible
02 Oct 3.7 02:14:00 10° NW 02:14:35 10° NNW 02:15:09 10° NNW visible
03 Oct 3.0 01:13:25 10° W 01:15:49 20° NW 01:18:13 10° NNE visible
